Location: �bnet
(46.9957°N, 8.4908°E)
Time: 01:12:40
(UTC+00:00)

SPOT 5 - Pass Details

Date: 11 May 2021
Orbit: 623 x 815 km, 98.2° (Epoch: 18 June)

Event Time Altitude Azimuth Distance (km) Brightness Sun altitude
Exits shadow 21:38:30 27° 208° (SSW) 1,451 4.1 -20.8°
Maximum altitude 21:40:51 44° 262° (W) 1,076 3.8 -21.0°
Drops below altitude 10° 21:45:54 10° 335° (NNW) 2,388 6.7 -21.4°
Sets 21:48:24 0° 341° (NNW) 3,337 7.8 -21.5°
